Location: Ostrava
(49.8330°N, 18.2830°E)
Time: 20:52:27
(UTC+01:00)

Cosmos 2219 Rocket - Visible Passes

Search period start: 19 February 2018 00:00
Search period end: 01 March 2018 00:00
Orbit: 826 x 848 km, 71.0° (Epoch: 19 February)

Date Brightness Start Highest point End Pass type
(mag) Time Alt. Az. Time Alt. Az. Time Alt. Az.
19 Feb 4.0 18:20:38 10° NW 18:25:43 34° WSW 18:30:46 10° S visible
20 Feb 3.9 18:04:13 10° NW 18:09:24 37° WSW 18:14:31 10° S visible
21 Feb 3.9 17:47:49 10° NW 17:53:04 39° WSW 17:58:16 10° S visible
26 Feb 4.8 05:54:17 10° SSE 05:58:53 26° ESE 06:03:30 10° NE visible
27 Feb 4.9 05:38:06 10° SSE 05:42:34 24° ESE 05:47:03 10° NE visible
28 Feb 4.9 05:21:57 10° SSE 05:26:15 23° ESE 05:30:35 10° NE visible
